Tracking 19572 objects as of 23-Feb-2019
HD Live streaming from Space Station
objects crossing your sky now

COSMOS 689

Track COSMOS 689 now!
10-day predictions
COSMOS 689 is classified as:


NORAD ID: 7476
Int'l Code: 1974-079A
Perigee: 977.0 km
Apogee: 1,021.0 km
Inclination: 82.9 °
Period: 104.9 minutes
Semi major axis: 7370 km
RCS: 1.8881 m2 (large)
Launch date: October 18, 1974
Source: Commonwealth of Independent States (former USSR) (CIS)
Launch site: PLESETSK MISSILE AND SPACE COMPLEX (PKMTR)
aabbcc
Your satellite tracking list
Your tracking list is empty




NASA's NSSDC Master Catalog

Two Line Element Set (TLE):
1  7476U 74079A   19054.24110012  .00000049  00000-0  36890-4 0  9994
2  7476  82.9460 346.1683 0029888 341.3579 129.8832 13.72145116220337
Source of the keplerian elements: AFSPC